Location: *
(51.2167°N, 10.0667°E)
Time: 01:20:09
(UTC+00:00)

Sich 1 Rocket - Pass Details

Date: 12 December 2019
Orbit: 617 x 652 km, 82.5° (Epoch: 27 January)

Event Time Altitude Azimuth Distance (km) Brightness Sun altitude
Rises 17:22:43 0° 349° (NNW) 2,915 7.0 -19.2°
Reaches altitude 10° 17:24:58 10° 349° (N) 2,000 6.1 -19.6°
Maximum altitude 17:29:24 87° 262° (W) 627 3.5 -20.2°
Drops below altitude 10° 17:33:47 10° 173° (S) 1,977 6.2 -20.9°
Sets 17:35:59 0° 173° (S) 2,878 7.0 -21.2°
